Weather History for Courtland, AL

Change the Weather History Date:

Friday, May 3, 2013

  Actual Average (KMSL) Record (KMSL)
Temperature  
Mean Temperature 58 °F 66 °F  
Max Temperature 73 °F 78 °F 91 °F (1902)
Min Temperature 42 °F 55 °F 36 °F (1918)
Degree Days  
Heating Degree Days 8 2  
Month to date heating degree days 6  
Since 1 July heating degree days 3079  
Cooling Degree Days 0 3  
Month to date cooling degree days 9  
Year to date cooling degree days 74  
Growing Degree Days 8 (Base 50)    
Moisture  
Dew Point 53 °F    
Average Humidity 78    
Maximum Humidity 100    
Minimum Humidity 50    
Precipitation  
Precipitation 0.00 in 0.15 in 2.21 in (2002)
Month to date precipitation 0.46  
Year to date precipitation 18.84  
Snow  
Snow 0.00 in - - ()
Month to date snowfall  
Since 1 July snowfall  
Snow Depth -    
Sea Level Pressure  
Sea Level Pressure 29.96 in    
Wind  
Wind Speed 10 mph (SE)    
Max Wind Speed 24 mph    
Max Gust Speed 33 mph    
Visibility 9 miles    
Events Rain    
T = Trace of Precipitation, MM = Missing Value Source: NWS Daily Summary

Daily Weather History Graph

Daily Weather History Graph

Search for Another Location

Airport:

Trip Planner

Search our weather history database for the weather conditions in past years. The results will help you decide how hot, cold, wet, or windy it might be!

Date:

Astronomy

May. 03, 2013 Rise Set
Actual Time 5:56 AM CDT 7:36 PM CDT
Civil Twilight 5:29 AM CDT 8:03 PM CDT
Nautical Twilight 4:57 AM CDT 8:35 PM CDT
Astronomical Twilight 4:22 AM CDT 9:10 PM CDT
Moon 2:05 AM CDT (5/3) 1:44 PM CDT (5/3)
Length of Visible Light 14h 33m
Length of Day
13h 39m
Last Quarter, 37% of the Moon is Illuminated
May 3
Last Quarter
May 9
New
May 17
First Quarter
May 24
Full
May 31
Last Quarter

Hourly Weather History & Observations

Time (CDT) Temp. Windchill Dew Point Humidity Pressure Visibility Wind Dir Wind Speed Gust Speed Precip Events Conditions
12:15 AM 60.8 °F - 57.2 °F 88% 30.07 in 10.0 mi ESE 4.6 mph - N/A   Scattered Clouds
12:35 AM 60.8 °F - 57.2 °F 88% 30.07 in 10.0 mi ESE 4.6 mph - N/A   Clear
12:55 AM 59.0 °F - 57.2 °F 94% 30.07 in 10.0 mi ESE 4.6 mph - N/A   Clear
1:15 AM 59.0 °F - 57.2 °F 94% 30.06 in 10.0 mi ESE 3.5 mph - N/A   Scattered Clouds
1:35 AM 59.0 °F - 57.2 °F 94% 30.05 in 10.0 mi ESE 4.6 mph - N/A   Mostly Cloudy
1:55 AM 60.8 °F - 59.0 °F 94% 30.04 in 10.0 mi ESE 4.6 mph - N/A   Overcast
2:15 AM 59.0 °F - 57.2 °F 94% 30.04 in 10.0 mi ESE 4.6 mph - N/A   Scattered Clouds
2:35 AM 60.8 °F - 57.2 °F 88% 30.03 in 10.0 mi ESE 6.9 mph - N/A   Scattered Clouds
2:55 AM 60.8 °F - 57.2 °F 88% 30.02 in 10.0 mi ESE 5.8 mph - N/A   Scattered Clouds
3:15 AM 60.8 °F - 57.2 °F 88% 30.02 in 10.0 mi ESE 4.6 mph - N/A   Scattered Clouds
3:35 AM 60.8 °F - 57.2 °F 88% 30.02 in 10.0 mi ESE 6.9 mph - N/A   Overcast
3:55 AM 60.8 °F - 55.4 °F 82% 30.02 in 10.0 mi ESE 8.1 mph - N/A   Overcast
4:15 AM 59.0 °F - 55.4 °F 88% 30.02 in 10.0 mi SE 5.8 mph - N/A   Scattered Clouds
4:35 AM 59.0 °F - 55.4 °F 88% 30.02 in 10.0 mi Calm Calm - N/A   Clear
4:55 AM 59.0 °F - 55.4 °F 88% 30.02 in 10.0 mi ESE 5.8 mph - N/A   Scattered Clouds
5:15 AM 57.2 °F - 55.4 °F 94% 30.01 in 10.0 mi ESE 4.6 mph - N/A   Scattered Clouds
5:35 AM 57.2 °F - 55.4 °F 94% 30.01 in 10.0 mi ESE 5.8 mph - N/A   Clear
5:55 AM 59.0 °F - 55.4 °F 88% 30.00 in 10.0 mi ESE 5.8 mph - N/A   Mostly Cloudy
6:15 AM 59.0 °F - 55.4 °F 88% 30.00 in 10.0 mi SE 4.6 mph - N/A   Scattered Clouds
6:35 AM 59.0 °F - 55.4 °F 88% 30.01 in 10.0 mi Calm Calm - N/A   Clear
6:55 AM 60.8 °F - 57.2 °F 88% 30.01 in 10.0 mi ESE 5.8 mph - N/A   Clear
7:15 AM 62.6 °F - 55.4 °F 77% 30.00 in 10.0 mi SE 8.1 mph - N/A   Clear
7:35 AM 62.6 °F - 55.4 °F 77% 30.00 in 10.0 mi SE 10.4 mph - N/A   Clear
7:55 AM 62.6 °F - 55.4 °F 77% 30.00 in 10.0 mi ESE 11.5 mph - N/A   Clear
8:15 AM 62.6 °F - 55.4 °F 77% 30.00 in 10.0 mi SE 12.7 mph 16.1 mph N/A   Clear
8:35 AM 64.4 °F - 55.4 °F 73% 30.00 in 10.0 mi SE 11.5 mph - N/A   Mostly Cloudy
8:55 AM 64.4 °F - 55.4 °F 73% 30.00 in 10.0 mi SE 18.4 mph 26.5 mph N/A   Overcast
9:15 AM 64.4 °F - 55.4 °F 73% 30.00 in 10.0 mi SE 13.8 mph 17.3 mph N/A   Overcast
9:35 AM 64.4 °F - 55.4 °F 73% 29.99 in 10.0 mi SE 21.9 mph 28.8 mph N/A   Overcast
9:55 AM 66.2 °F - 53.6 °F 64% 29.99 in 10.0 mi SE 19.6 mph 28.8 mph N/A   Overcast
10:15 AM 66.2 °F - 53.6 °F 64% 29.98 in 10.0 mi SE 15.0 mph 28.8 mph N/A   Overcast
10:35 AM 66.2 °F - 55.4 °F 68% 29.98 in 10.0 mi SSE 17.3 mph 25.3 mph N/A   Overcast
10:55 AM 69.8 °F - 55.4 °F 60% 29.98 in 10.0 mi SE 23.0 mph 29.9 mph N/A   Overcast
11:15 AM 68.0 °F - 53.6 °F 60% 29.98 in 10.0 mi SE 24.2 mph 31.1 mph N/A   Overcast
11:35 AM 69.8 °F - 55.4 °F 60% 29.97 in 10.0 mi SE 13.8 mph 28.8 mph N/A   Mostly Cloudy
11:55 AM 69.8 °F - 55.4 °F 60% 29.96 in 10.0 mi SE 20.7 mph 27.6 mph N/A   Mostly Cloudy
12:15 PM 69.8 °F - 55.4 °F 60% 29.95 in 10.0 mi SSE 15.0 mph 26.5 mph N/A   Mostly Cloudy
12:35 PM 71.6 °F - 55.4 °F 57% 29.94 in 10.0 mi SSE 18.4 mph 25.3 mph N/A   Mostly Cloudy
12:55 PM 69.8 °F - 53.6 °F 56% 29.93 in 10.0 mi SE 15.0 mph 25.3 mph N/A   Mostly Cloudy
1:15 PM 71.6 °F - 53.6 °F 53% 29.92 in 10.0 mi SE 17.3 mph 27.6 mph N/A   Mostly Cloudy
1:35 PM 71.6 °F - 53.6 °F 53% 29.92 in 10.0 mi SSE 17.3 mph 27.6 mph N/A   Scattered Clouds
1:55 PM 73.4 °F - 53.6 °F 50% 29.91 in 10.0 mi ESE 23.0 mph 28.8 mph N/A   Scattered Clouds
2:15 PM 71.6 °F - 53.6 °F 53% 29.90 in 10.0 mi SE 19.6 mph 26.5 mph N/A   Mostly Cloudy
2:35 PM 71.6 °F - 53.6 °F 53% 29.89 in 10.0 mi SE 17.3 mph 25.3 mph N/A   Overcast
2:55 PM 71.6 °F - 53.6 °F 53% 29.88 in 10.0 mi SE 17.3 mph 24.2 mph N/A   Overcast
3:15 PM 69.8 °F - 51.8 °F 53% 29.87 in 10.0 mi SE 19.6 mph 26.5 mph N/A   Overcast
3:35 PM 69.8 °F - 51.8 °F 53% 29.86 in 10.0 mi SE 20.7 mph 28.8 mph N/A   Mostly Cloudy
3:55 PM 69.8 °F - 53.6 °F 56% 29.86 in 10.0 mi SSE 12.7 mph 33.4 mph N/A   Overcast
4:15 PM 69.8 °F - 53.6 °F 56% 29.85 in 10.0 mi SE 13.8 mph 23.0 mph N/A   Overcast
4:35 PM 69.8 °F - 53.6 °F 56% 29.85 in 10.0 mi SE 15.0 mph 25.3 mph N/A   Overcast
4:55 PM 69.8 °F - 53.6 °F 56% 29.85 in 10.0 mi SE 18.4 mph 24.2 mph N/A   Overcast
5:15 PM 68.0 °F - 53.6 °F 60% 29.85 in 10.0 mi SE 23.0 mph 27.6 mph N/A   Overcast
5:35 PM 68.0 °F - 53.6 °F 60% 29.85 in 10.0 mi SE 19.6 mph 27.6 mph N/A   Overcast
5:55 PM 68.0 °F - 51.8 °F 56% 29.85 in 10.0 mi SE 18.4 mph 26.5 mph N/A   Overcast
6:15 PM 66.2 °F - 53.6 °F 64% 29.85 in 10.0 mi SE 11.5 mph 19.6 mph N/A Rain Light Rain
6:35 PM 64.4 °F - 53.6 °F 68% 29.86 in 10.0 mi SE 11.5 mph - N/A   Overcast
6:55 PM 64.4 °F - 53.6 °F 68% 29.87 in 10.0 mi SSE 9.2 mph 19.6 mph N/A Rain Rain
7:15 PM 62.6 °F - 55.4 °F 77% 29.90 in 5.0 mi WSW 6.9 mph 18.4 mph N/A Rain Rain
7:35 PM 50.0 °F - 50.0 °F 100% 29.91 in 1.5 mi WNW 16.1 mph 24.2 mph N/A Rain Heavy Rain
7:55 PM 50.0 °F - 50.0 °F 100% 29.92 in 4.0 mi NW 11.5 mph 18.4 mph N/A Rain Rain
8:15 PM 46.4 °F 40.7 °F 46.4 °F 100% 29.94 in 3.0 mi West 12.7 mph 17.3 mph N/A Rain Rain
8:35 PM 46.4 °F 41.9 °F 46.4 °F 100% 29.95 in 3.0 mi West 9.2 mph - N/A Rain Heavy Rain
8:55 PM 44.6 °F 38.4 °F 44.6 °F 100% 29.95 in 3.0 mi WNW 12.7 mph - N/A Rain Heavy Rain
9:15 PM 44.6 °F 39.7 °F 44.6 °F 100% 29.98 in 3.0 mi WNW 9.2 mph - N/A Rain Heavy Rain
9:35 PM 44.6 °F 40.7 °F 44.6 °F 100% 29.99 in 1.2 mi WNW 6.9 mph - N/A   Overcast
9:55 PM 44.6 °F 37.8 °F 44.6 °F 100% 29.98 in 2.5 mi NW 15.0 mph - N/A Rain Rain
10:15 PM 44.6 °F 37.8 °F 44.6 °F 100% 29.97 in 4.0 mi NNW 15.0 mph - N/A Rain Rain
10:35 PM 42.8 °F 36.2 °F 42.8 °F 100% 29.99 in 2.0 mi WNW 12.7 mph 18.4 mph N/A Rain Heavy Rain
10:55 PM 42.8 °F 38.6 °F 42.8 °F 100% 30.00 in 4.0 mi WNW 6.9 mph - N/A Rain Rain
11:15 PM 42.8 °F 37.5 °F 42.8 °F 100% 29.99 in 4.0 mi NW 9.2 mph - N/A Rain Rain
11:35 PM 42.8 °F 36.6 °F 42.8 °F 100% 29.98 in 5.0 mi NW 11.5 mph - N/A Rain Rain
11:55 PM 42.8 °F 40.1 °F 42.8 °F 100% 30.00 in 3.0 mi WNW 4.6 mph - N/A Rain Rain